Flag for U.S.A. Weather past 2 weeks in Abilene, Texas, U.S.A.

Now
97 °F

Passing clouds.


Feels Like: 98 °F
Forecast: 75 / 96 °F
Wind: 15 mph from Southeast

Location: Abilene Regional Airport

Current Time: Aug 3, 2015 at 6:57:34 PM

Latest Report: Aug 3, 2015 at 5:52 PM


Visibility: 10 mi

Pressure: 29.80 "Hg (28.12 "Hg at 524m altitude)

Humidity: 30%

Dew point: 61 °F

Location of AbileneLocation

Historic Weather in Abilene — Graph

°F

Abilene temperature yesterday

Maximum temperature yesterday: 97 °F (at 2:52 PM)
Minimum temperature yesterday: 76 °F (at 3:52 AM)
Average temperature yesterday: 85 °F

Past Weeks' High & Low Weather Summary

 TemperatureHumidityPressure
High101 °F (Jul 31, 4:52 PM)80% (Jul 20, 6:52 AM)30.08 "Hg (Jul 20, 6:52 AM)
Low75 °F (Jul 25, 6:52 AM)25% (Jul 31, 2:52 PM)29.74 "Hg (Jul 21, 6:52 PM)
Average86 °F52%29.89 "Hg
* Reported Jul 19 5:52 PM — Aug 3 5:52 PM, Abilene, Weather by CustomWeather, © 2015

Note: Actual official high and low records may vary slightly from our data, if they occured in-between our weather recording intervals... More about our weather records

Advertising

Abilene weather history for previous 24 hours

 ConditionsComfort  
Time TempWeatherWind HumidityBarometerVisibility
5:52 PM
Mon, Aug 3
97 °FPassing clouds.15 mph30%29.80 "Hg10 mi
4:52 PM96 °FPassing clouds.13 mph31%29.81 "Hg10 mi
3:52 PM97 °FSunny.14 mph30%29.83 "Hg10 mi
2:52 PM95 °FPartly sunny.6 mph34%29.85 "Hg10 mi
1:52 PM95 °FSunny.3 mph34%29.86 "Hg10 mi
12:52 PM94 °FSunny.7 mph36%29.88 "Hg10 mi
11:52 AM91 °FSunny.12 mph37%29.88 "Hg10 mi
10:52 AM90 °FSunny.N/A39%29.89 "Hg10 mi
9:52 AM84 °FPassing clouds.6 mph46%29.90 "Hg10 mi
8:52 AM81 °FPartly sunny.7 mph53%29.89 "Hg10 mi
7:52 AM78 °FOvercast.No wind56%29.87 "Hg10 mi
6:52 AM77 °FPassing clouds.6 mph56%29.85 "Hg10 mi
5:52 AM77 °FClear.7 mph54%29.83 "Hg10 mi
4:52 AM77 °FPassing clouds.8 mph54%29.82 "Hg10 mi
3:52 AM78 °FPassing clouds.10 mph52%29.81 "Hg10 mi
2:52 AM79 °FClear.12 mph50%29.81 "Hg10 mi
1:52 AM81 °FClear.14 mph47%29.82 "Hg10 mi
12:52 AM81 °FClear.10 mph51%29.82 "Hg10 mi
11:52 PM
Sun, Aug 2
81 °FClear.10 mph53%29.83 "Hg10 mi
10:52 PM81 °FClear.7 mph53%29.84 "Hg10 mi
9:52 PM83 °FClear.7 mph50%29.83 "Hg10 mi
8:52 PM88 °FSunny.9 mph42%29.81 "Hg10 mi
7:52 PM92 °FSunny.16 mph36%29.80 "Hg10 mi
6:52 PM95 °FSunny.12 mph32%29.79 "Hg10 mi
Weather by CustomWeather, © 2015

See weather overviewHow to use our weather pages